| time (UTC) | temp F | wind direction | speed knots | gust knots | rain 1hr in | rain 24hr in | rain mn in | humidity % | barometer mb |
| 20260502222004 | 70 | 203 | 0.9 | 1.7 | 0.00 | 0.32 | 0.32 | 96 | 1010.0 |
| 20260502215004 | 71 | 241 | 2.6 | 7.0 | 0.02 | 0.32 | 0.32 | 93 | 1009.7 |
| 20260502213003 | 70 | 196 | 1.7 | 4.3 | 0.04 | 0.32 | 0.32 | 95 | 1008.7 |
| 20260502211505 | 69 | 211 | 0.9 | 1.7 | 0.04 | 0.32 | 0.32 | 98 | 1009.2 |
| 20260502210004 | 69 | 209 | 0.9 | 2.6 | 0.03 | 0.31 | 0.31 | 98 | 1009.7 |
| 20260502205005 | 69 | 208 | 1.7 | 2.6 | 0.02 | 0.30 | 0.30 | 98 | 1009.7 |
| 20260502203504 | 69 | 225 | 1.7 | 2.6 | 0.06 | 0.29 | 0.29 | 98 | 1010.0 |
| 20260502203003 | 69 | 182 | 2.6 | 6.1 | 0.07 | 0.28 | 0.28 | 98 | 1010.3 |
| 20260502195005 | 68 | 198 | 0.9 | 2.6 | 0.28 | 0.28 | 0.28 | 97 | 1009.6 |
| 20260502194505 | 68 | 218 | 0.9 | 2.6 | 0.28 | 0.28 | 0.28 | 96 | 1009.7 |
| 20260502194003 | 68 | 266 | 1.7 | 4.3 | 0.28 | 0.28 | 0.28 | 96 | 1010.1 |
| 20260502193504 | 68 | 212 | 3.5 | 6.1 | 0.23 | 0.23 | 0.23 | 96 | 1011.0 |
| 20260502193005 | 68 | 192 | 6.1 | 8.7 | 0.21 | 0.21 | 0.21 | 95 | 1011.4 |
| 20260502192003 | 69 | 235 | 7.8 | 13.0 | 0.10 | 0.10 | 0.10 | 93 | 1011.5 |
| 20260502191004 | 72 | 230 | 5.2 | 10.4 | 0.01 | 0.01 | 0.01 | 83 | 1011.4 |
| 20260502190503 | 75 | 276 | 5.2 | 12.2 | 0.01 | 0.01 | 0.01 | 77 | 1011.3 |
| 20260502184503 | 81 | 229 | 5.2 | 7.0 | 0.00 | 0.00 | 0.00 | 78 | 1010.3 |
| 20260502184004 | 81 | 216 | 4.3 | 7.8 | 0.00 | 0.00 | 0.00 | 78 | 1010.2 |
| 20260502183505 | 82 | 183 | 4.3 | 7.8 | 0.00 | 0.00 | 0.00 | 77 | 1010.1 |
| 20260502183003 | 82 | 206 | 5.2 | 7.8 | 0.00 | 0.00 | 0.00 | 76 | 1010.3 |
| 20260502182504 | 82 | 235 | 4.3 | 8.7 | 0.00 | 0.00 | 0.00 | 75 | 1010.4 |
| 20260502182004 | 82 | 221 | 5.2 | 11.3 | 0.00 | 0.00 | 0.00 | 76 | 1010.4 |
| 20260502181505 | 82 | 231 | 6.1 | 13.0 | 0.00 | 0.00 | 0.00 | 76 | 1010.3 |
| 20260502180504 | 83 | 229 | 5.2 | 14.8 | 0.00 | 0.00 | 0.00 | 73 | 1010.4 |
| 20260502170504 | 83 | 231 | 6.1 | 11.3 | 0.00 | 0.00 | 0.00 | 72 | 1010.4 |